Find PRAETORIAN SDA_513

NORAD ID: 100071 Int'l Des: 2026-163N Country: USA operational

現在のビュー

3D地球を読み込み中...

About PRAETORIAN SDA_513

PRAETORIAN SDA_513 (NORAD 100071) is a satellite of USA.

次回通過

Passes for default location (London). Set your location on the main map for personalized predictions.

高度履歴

Loading altitude history...

軌道要素

1 A0071U 26206.56566833 .00000135 00000-0 10798-3 0 9993
2 A0071 81.4866 301.7601 0013280 187.2762 172.8205 13.85451480 1216
Epoch: Jul 25, 2026 • Age: 12 hours

現在のステータス

高度 968.9 km
遠地点 / 近地点 N/A
速度 7.36 km/s
衛星直下点 -48.22°S, 34.15°W
タイプ other

Most Searched